Temp
27 27 27 27 28 29 29 29 29 28 28 29 29 29 30 29 29 30 27 27 26 25 25 24 24 23 22 22 21 21 21 21 21 22 22 22 22 22 22 22 22 22 22
26 27 27 28 29 29 29 29 28 28 29 30 29 29 29 29 28 28 29 27 27 26 26 25 24 24 23 22 21 21 21 22 22 22 23 22 22 22 22 22 22 22 21
26 27 28 28 29 27 28 28 28 29 30 30 29 29 30 29 29 28 29 29 27 27 27 26 25 25 24 23 23 22 22 22 22 22 23 22 23 22 22 22 22 22 21
25 26 27 28 28 28 29 29 30 30 30 30 30 30 30 30 29 29 29 29 29 29 27 27 26 25 24 24 23 22 22 23 22 22 23 23 22 22 22 23 22 23 22
25 26 28 27 26 29 29 27 30 29 30 31 31 31 30 30 30 31 30 29 29 28 28 27 27 26 25 25 24 23 23 23 23 23 23 23 22 23 23 23 23 23 23
26 26 28 26 26 29 29 27 27 28 29 30 31 31 31 31 31 30 31 31 30 29 29 28 27 27 27 25 25 24 24 24 24 24 23 23 23 23 23 23 24 24 24
26 25 27 26 27 27 26 27 27 28 30 30 30 31 31 31 31 31 31 31 30 30 29 29 27 28 27 26 25 25 25 24 24 24 23 23 23 23 23 23 23 24 24
26 26 26 27 27 28 26 26 26 27 30 29 29 31 30 24 25 30 31 30 30 30 30 30 27 27 26 27 26 25 25 24 24 24 24 23 22 23 23 23 23 24 23
26 25 26 25 26 26 28 26 27 27 29 29 28 29 31 26 24 31 30 31 29 30 30 30 29 28 26 27 26 25 25 25 24 24 23 23 23 23 23 23 23 23 23
26 26 25 25 25 26 27 27 26 26 26 29 30 30 27 27 30 31 32 27 31 31 30 30 30 29 27 27 27 26 25 25 24 24 23 23 23 23 23 23 23 23 23
26 26 26 26 25 25 26 25 26 25 27 27 29 30 29 29 29 29 31 31 32 31 31 31 30 30 29 27 27 26 25 24 24 24 23 23 23 23 23 23 23 22 22
26 25 26 25 25 25 26 25 25 25 25 26 27 28 29 30 29 28 28 31 31 32 31 31 31 30 29 28 26 25 25 24 24 23 23 22 22 22 22 22 22 22 22
28 26 25 25 26 25 25 25 25 25 25 26 26 27 29 29 29 30 30 31 31 31 31 31 30 29 28 28 25 25 25 24 24 23 23 22 22 22 21 21 21 21 22
27 27 25 26 25 25 25 24 24 25 26 26 25 25 27 28 29 30 30 30 30 31 29 29 28 28 27 27 27 26 25 24 24 23 23 22 22 21 21 21 21 22 21
27 27 25 26 26 26 25 25 24 26 26 25 26 26 26 27 29 30 30 29 29 29 27 27 27 27 27 27 26 26 25 24 23 23 22 22 21 21 21 21 21 21 21
27 26 26 26 26 26 26 25 26 26 26 26 27 27 27 28 28 29 29 29 29 27 26 26 27 27 26 27 26 26 25 25 23 23 22 21 20 20 20 20 20 20 20
26 26 25 26 26 26 26 25 24 25 25 25 26 26 26 26 26 27 29 28 28 26 25 27 27 27 26 25 24 24 25 24 23 22 22 21 20 20 20 20 20 20 20
25 25 25 24 25 25 25 24 24 26 26 26 25 24 25 25 24 24 25 25 27 25 23 24 25 26 25 25 24 24 25 25 22 22 22 20 20 19 19 19 19 20 20
24 26 25 25 24 24 24 25 25 25 25 26 25 25 25 24 24 24 23 24 24 24 23 24 24 27 26 25 24 25 23 23 22 21 21 20 20 19 19 19 18 18 19
24 24 25 25 25 25 25 25 25 24 25 25 26 26 24 24 24 24 23 23 24 24 24 24 26 26 25 24 23 23 23 22 21 21 20 19 19 19 18 17 17 17 17
24 24 24 25 25 26 26 25 25 25 25 25 25 25 24 23 24 24 23 23 23 23 23 24 25 24 24 23 22 22 23 21 20 20 20 20 20 18 17 16 16 16 16
24 24 24 24 25 25 27 26 26 26 26 25 25 24 24 23 23 23 23 23 22 23 24 24 23 23 22 21 22 23 23 22 20 20 19 19 19 18 17 16 16 15 15
24 24 24 24 25 24 25 26 26 26 26 26 25 24 23 23 22 21 21 22 21 21 21 21 22 20 21 19 19 20 19 20 19 17 18 17 18 17 16 16 16 15 14
23 23 23 23 24 24 24 25 25 25 25 25 25 24 23 23 22 21 21 21 22 19 19 20 19 18 18 18 18 17 17 17 17 17 18 17 18 20 17 15 16 16 15
22 22 22 23 23 24 24 24 24 24 25 24 24 23 23 22 22 21 22 21 20 18 18 18 18 18 17 17 17 18 18 18 17 18 18 19 21 21 20 17 16 16 16
22 23 24 22 22 22 23 24 24 24 25 24 22 21 22 21 20 20 21 20 20 18 16 15 16 17 17 17 17 17 18 19 21 21 18 19 22 22 22 20 17 17 16
Height
840 841 841 838 837 838 838 838 838 839 840 838 838 839 837 838 839 839 840 841 842 843 843 843 843 843 842 842 841 840 840 839 839 837 836 837 837 836 836 834 832 831 830
841 843 841 838 838 837 837 838 839 838 837 836 839 839 839 838 840 841 840 840 841 841 841 841 841 840 840 839 840 838 838 838 837 835 833 834 834 832 832 831 831 829 830
843 842 840 837 838 839 840 839 839 836 835 836 839 838 838 838 838 841 840 839 838 838 838 838 838 837 837 836 836 836 836 835 834 833 831 830 829 830 829 829 829 828 829
845 842 840 837 840 840 838 838 836 834 835 835 836 836 837 838 838 839 839 839 837 837 835 835 835 836 835 834 833 834 833 832 832 831 829 828 828 828 828 827 827 827 827
845 842 839 839 842 840 838 839 836 836 835 834 833 834 836 836 837 834 836 837 835 836 835 833 834 834 833 832 831 832 832 832 831 830 830 829 828 827 826 825 825 825 825
843 842 839 841 842 840 839 838 839 839 835 833 829 830 834 835 836 835 833 831 829 833 833 834 834 833 832 832 831 831 831 831 831 830 828 828 827 827 825 824 823 823 824
842 842 840 842 843 841 841 844 843 840 834 835 835 830 831 830 833 832 830 830 830 831 832 832 833 833 832 831 831 831 830 830 830 830 828 828 827 826 825 824 823 823 822
840 842 841 841 842 841 843 845 844 839 835 836 837 834 828 837 833 828 832 832 831 828 827 829 832 833 832 831 831 830 830 830 830 829 828 827 826 826 824 823 822 822 821
839 841 842 842 842 844 841 842 843 842 836 834 838 841 832 839 839 826 828 827 828 827 827 828 826 829 831 830 828 830 829 829 829 828 828 827 826 825 824 823 822 821 820
837 838 840 841 843 842 840 842 842 841 840 836 834 836 841 841 837 832 825 830 823 823 825 826 824 824 827 828 827 828 828 828 828 828 828 827 826 825 824 823 822 820 818
834 836 838 839 841 842 840 841 841 841 839 839 835 836 837 837 835 833 825 823 821 822 823 823 824 824 824 827 828 826 828 827 827 827 827 827 826 825 823 822 821 820 818
830 834 835 837 839 839 839 840 840 840 839 838 837 837 835 833 832 831 830 824 824 821 822 823 823 824 824 825 826 827 828 827 827 826 826 825 825 824 823 821 820 819 818
825 826 830 834 835 837 837 838 839 838 838 839 839 837 833 832 831 830 829 826 823 821 820 820 822 823 825 824 823 826 826 826 826 825 824 823 822 822 821 821 819 818 817
823 824 826 830 832 833 835 837 837 837 836 836 837 838 837 833 831 829 829 827 825 821 820 823 822 824 825 824 823 825 824 824 824 824 823 822 820 820 819 819 818 817 816
820 821 825 825 828 830 832 833 834 833 833 834 834 834 835 833 830 828 827 827 826 827 825 826 824 825 824 823 823 824 824 822 823 823 822 822 821 820 819 818 818 818 817
818 819 821 823 824 827 829 830 830 830 831 831 831 830 831 829 828 827 825 825 826 827 829 825 824 823 823 823 823 823 822 821 821 821 821 821 821 820 819 818 817 817 816
814 816 819 821 821 823 825 827 828 827 828 829 829 828 828 829 829 826 823 823 822 824 828 824 822 821 822 822 822 823 821 819 818 820 820 820 820 820 820 819 818 817 816
808 810 813 816 818 819 820 823 824 824 824 825 826 828 827 827 826 826 825 823 823 825 826 826 824 821 820 821 822 822 820 820 818 819 820 819 819 819 819 818 818 817 816
806 807 808 809 812 813 815 816 818 820 821 820 821 822 823 824 822 823 822 822 822 823 823 823 822 818 818 818 819 819 818 818 819 819 819 820 819 819 818 818 817 817 816
800 802 802 804 805 808 809 811 813 815 816 817 816 817 819 819 819 819 819 819 819 820 819 820 817 815 817 818 819 819 818 817 818 819 819 820 819 819 819 818 818 817 816
792 794 797 798 799 801 802 804 806 808 811 811 813 814 814 814 814 814 815 817 817 818 818 817 814 816 817 818 818 818 816 816 818 819 819 819 819 819 819 820 818 817 817
785 786 788 790 792 794 794 797 800 801 804 806 807 809 811 810 810 811 812 812 813 815 815 815 816 816 817 818 817 817 816 815 817 818 818 819 820 820 821 819 818 818 817
778 779 780 782 783 785 786 789 793 796 798 799 801 805 807 808 807 808 810 812 812 813 814 815 816 816 817 818 818 818 819 819 819 820 819 820 821 821 821 818 818 817 817
772 772 773 774 774 776 778 781 785 788 791 793 795 799 801 803 805 807 808 811 812 814 813 813 814 815 817 818 819 819 820 821 821 821 820 821 821 819 821 819 817 817 817
765 764 765 766 766 767 770 773 777 781 783 786 789 793 795 798 800 802 806 808 810 811 811 812 812 814 817 818 818 818 819 820 821 821 821 820 817 817 817 818 817 817 818
757 756 755 755 757 759 763 766 769 774 775 779 783 787 790 792 795 798 802 805 808 811 814 811 812 815 818 818 819 819 819 820 819 818 821 820 817 816 813 814 814 814 815
Wind_Speed
8 6 4 5 2 4 6 3 3 2 2 3 2 0 2 2 3 3 6 2 2 3 4 6 8 10 12 14 15 17 17 16 15 16 13 11 9 9 6 7 7 7 5
10 9 8 7 5 0 4 3 1 2 3 1 5 1 1 3 1 1 3 2 2 3 6 8 10 12 13 14 15 15 15 13 14 14 13 11 8 9 8 6 5 5 4
6 6 3 1 5 4 5 6 5 6 7 2 2 3 4 2 3 1 2 2 5 7 6 11 10 12 15 15 15 14 13 14 15 12 9 9 7 7 8 7 5 4 2
8 3 8 6 6 5 3 0 3 3 2 2 1 2 3 3 3 4 4 4 6 7 9 8 10 14 13 12 11 11 11 11 10 7 7 8 6 5 7 8 4 2 2
8 6 3 6 6 4 1 4 1 5 6 2 8 5 5 4 5 7 2 5 8 6 9 8 11 14 10 12 7 8 8 8 7 6 8 7 5 5 5 6 4 2 1
9 6 5 2 7 6 4 10 7 5 6 5 14 5 4 4 5 5 7 8 6 4 8 5 8 10 9 10 6 7 7 5 5 5 8 6 4 4 6 5 3 2 2
10 9 7 7 5 3 6 2 7 6 6 2 10 13 9 10 8 9 5 5 4 4 4 5 6 6 6 9 6 5 3 2 2 5 6 5 4 5 6 6 5 4 4
10 10 9 5 6 4 4 3 4 10 6 2 10 11 6 14 25 15 3 3 4 6 3 3 4 5 5 4 4 7 3 2 1 2 4 5 4 4 6 6 6 6 5
10 10 8 10 3 7 8 5 5 5 12 3 2 5 8 3 17 6 7 3 1 5 5 11 4 1 4 4 3 2 2 3 2 3 3 5 6 5 5 7 8 8 7
11 11 11 10 9 10 5 5 7 7 4 12 4 5 2 6 6 6 4 4 4 3 2 9 5 4 2 7 3 2 5 3 2 2 3 4 6 7 7 7 7 8 8
11 10 10 11 10 10 9 7 4 6 7 8 10 9 4 7 9 5 6 6 8 9 8 8 5 5 3 1 5 4 2 3 2 3 3 5 6 6 8 9 9 8 7
13 13 11 11 11 11 8 7 8 7 7 5 8 6 10 9 2 5 9 9 10 9 6 5 5 6 7 4 1 4 5 3 5 6 6 6 6 6 8 9 9 9 8
14 20 17 13 13 13 10 8 8 8 7 7 6 10 11 8 9 8 10 12 10 12 4 2 4 7 6 6 6 6 3 5 6 6 7 8 6 6 6 7 8 8 8
9 9 16 12 12 11 11 10 9 10 12 10 9 9 12 13 11 10 9 10 8 12 15 10 13 6 7 6 7 4 5 5 8 6 6 6 6 5 5 5 6 8 8
11 12 11 14 14 14 15 15 13 14 10 9 12 13 13 13 13 12 9 11 6 9 3 3 3 6 6 4 3 5 4 6 8 8 7 5 5 5 5 5 6 7 8
18 12 9 13 13 16 17 15 15 14 15 14 16 15 13 14 13 13 13 8 12 4 3 16 8 4 5 7 6 5 6 11 3 7 9 6 4 4 4 4 5 6 7
16 14 14 15 15 16 17 17 15 15 9 13 14 14 12 10 15 15 15 11 9 3 7 15 7 2 6 5 7 6 9 8 5 4 8 5 4 4 4 4 5 5 6
21 20 18 17 17 18 16 16 16 17 16 16 15 15 15 14 15 15 15 14 12 7 10 11 12 13 2 4 6 5 7 6 4 5 7 3 3 3 2 3 3 4 5
21 21 21 21 20 20 20 19 17 18 17 18 17 17 15 16 17 14 14 15 11 9 7 8 13 5 3 3 5 7 4 4 1 4 3 5 7 3 3 3 3 5 6
22 23 22 22 21 21 20 20 19 20 18 19 18 15 15 17 18 13 13 11 9 8 7 11 14 8 7 6 7 9 6 3 3 3 1 1 4 6 6 4 3 4 6
23 23 23 23 22 23 23 23 22 21 20 19 18 16 16 17 20 14 10 8 7 7 9 16 5 6 8 7 5 5 5 1 5 3 1 2 1 4 6 7 5 6 6
25 26 26 26 24 25 25 25 24 22 23 22 17 17 15 15 14 12 13 11 7 5 8 8 6 6 4 4 4 7 8 1 2 5 5 6 5 4 3 1 3 3 4
26 26 27 27 26 27 29 25 26 26 23 21 18 16 14 12 12 9 10 9 7 6 4 1 5 4 3 4 4 4 5 4 4 6 3 2 3 1 2 4 5 6 5
26 28 30 30 29 28 30 30 28 26 25 23 18 17 16 14 12 13 9 9 6 5 2 3 5 5 5 4 4 4 3 4 5 6 6 1 2 1 1 1 4 7 7
26 28 29 30 30 30 30 33 29 27 27 24 19 18 17 17 16 17 12 10 9 6 3 4 6 6 6 5 5 7 7 4 1 1 6 6 1 5 4 3 3 8 9
27 27 28 30 32 30 31 31 33 30 27 24 20 19 21 18 16 17 11 14 11 9 7 10 10 9 6 5 5 6 5 6 4 7 7 7 7 7 4 6 9 2 1
Wind_Direction
130 149 171 164 23 174 143 190 112 104 134 163 28 67 269 80 88 102 123 39 292 259 258 258 267 266 269 276 285 296 300 303 311 312 303 304 286 279 277 290 295 292 268
185 158 190 163 161 173 124 95 69 345 278 159 126 27 191 114 94 77 112 211 316 293 288 285 280 278 277 277 280 289 295 299 308 310 298 301 298 289 293 306 300 298 271
189 166 130 238 111 58 168 177 230 196 243 205 152 157 169 129 151 184 269 296 244 286 292 313 309 305 293 286 286 289 293 300 308 314 309 313 306 291 295 306 309 300 265
174 212 206 115 130 213 204 55 352 338 76 203 109 199 154 208 210 243 253 284 296 305 285 280 312 321 321 306 284 280 291 309 317 324 321 323 308 292 297 305 304 294 276
191 247 216 100 231 217 319 20 201 303 134 207 195 181 219 241 212 236 274 278 273 289 320 286 316 321 320 333 296 282 298 308 321 334 345 327 316 306 313 314 311 288 240
191 215 207 93 247 207 203 22 354 14 320 344 307 103 269 267 251 258 270 265 265 297 290 306 302 317 329 340 313 303 301 303 326 344 343 337 339 339 352 0 358 328 293
195 217 240 176 247 305 20 5 265 220 296 59 283 253 209 213 233 237 258 328 358 304 335 319 300 317 325 333 347 358 335 321 342 356 334 344 338 340 355 5 3 344 316
197 209 240 223 222 258 185 244 281 306 254 227 314 337 280 57 329 300 7 313 29 305 328 59 325 312 324 326 307 325 336 330 337 358 351 351 350 349 353 1 360 350 330
208 223 214 248 219 239 238 201 232 264 294 343 243 310 322 77 232 249 164 165 275 330 15 321 163 359 310 289 297 294 311 327 335 1 3 355 347 354 3 358 354 350 342
218 221 225 229 236 254 267 252 244 255 269 287 225 228 302 324 326 309 339 81 255 315 44 348 21 148 121 312 327 294 288 304 311 357 357 341 343 346 352 357 353 345 337
212 219 217 222 227 239 234 257 253 236 248 266 302 303 285 272 229 263 319 296 339 355 321 334 4 358 97 49 9 3 331 296 309 323 330 336 335 333 339 343 346 341 335
202 217 214 216 223 232 249 243 230 230 243 288 292 300 282 306 281 231 246 333 315 303 342 309 320 347 353 3 147 18 5 350 331 315 318 325 327 330 334 341 347 347 343
228 190 199 208 222 224 245 228 226 244 233 249 258 278 295 281 284 300 304 302 321 313 303 12 351 25 357 322 103 44 328 355 347 327 313 313 316 327 337 346 352 358 0
223 221 194 210 222 237 216 229 232 236 228 234 240 261 289 299 292 284 280 307 305 298 39 360 45 30 355 327 319 349 302 351 339 330 327 321 318 323 332 352 2 1 6
239 238 231 208 224 221 229 226 226 231 252 228 242 237 240 263 273 279 281 274 331 301 359 217 27 341 314 8 353 342 292 324 338 353 351 345 335 333 343 13 23 28 30
225 254 231 227 229 229 223 228 240 242 235 243 244 242 245 268 278 270 261 275 281 332 310 310 296 325 328 319 317 335 303 312 288 354 354 2 8 14 22 29 35 38 40
226 229 231 237 230 229 227 225 247 265 263 250 254 277 272 268 268 271 279 306 287 320 283 283 289 340 337 303 301 310 305 243 195 36 349 359 30 34 30 31 29 29 29
219 218 218 224 229 231 232 234 233 247 239 239 244 256 260 258 257 260 277 295 296 287 267 279 301 290 255 283 287 294 306 15 18 16 338 6 24 28 31 34 23 14 13
231 228 220 216 224 230 230 232 234 239 247 252 241 243 246 258 259 254 253 261 263 265 269 263 280 266 317 336 312 290 303 296 268 341 29 31 16 22 7 13 14 7 1
231 235 232 227 223 227 229 231 233 238 242 247 252 255 255 259 264 257 260 255 251 263 263 254 264 332 336 315 313 297 307 333 131 131 180 234 29 45 36 18 18 15 5
230 229 235 235 231 232 234 225 233 234 232 239 254 247 253 256 251 251 239 239 246 249 263 274 296 315 296 317 315 308 291 307 90 58 127 95 105 100 43 25 5 10 15
233 227 227 228 229 234 238 236 230 232 234 238 238 253 251 258 252 238 224 213 201 233 262 300 297 294 320 292 283 332 344 18 165 21 45 65 81 84 83 79 3 34 35
235 232 232 230 230 231 234 235 233 231 241 236 228 239 241 237 220 204 204 210 218 217 223 262 309 18 338 24 355 357 28 34 63 18 54 105 62 355 68 349 6 11 20
239 237 236 233 230 227 228 229 230 225 230 241 232 233 234 214 206 197 186 188 167 109 134 75 100 90 85 78 72 76 66 78 64 50 47 46 335 293 84 309 26 15 9
253 245 240 237 234 233 231 228 225 224 227 226 223 225 215 203 213 198 194 185 152 137 161 148 122 109 107 105 109 119 82 77 355 228 43 310 61 317 187 180 290 15 30
262 257 246 237 233 231 228 227 225 221 220 212 203 200 192 192 203 189 193 179 169 155 148 125 120 117 103 92 89 84 74 286 306 165 37 347 351 353 314 193 193 325 341